| time (UTC) | temp C | wind direction | speed KPH | gust KPH | rain 1hr cm | rain 24hr cm | rain mn cm | humidity % | barometer mb |
| 20260506121013 | 8 | 8 | 17.7 | 24.1 | 0.00 | 0.00 | 0.00 | 86 | 1008.8 |
| 20260506115513 | 8 | 15 | 12.9 | 24.1 | 0.00 | 0.00 | 0.00 | 87 | 1008.7 |
| 20260506114013 | 8 | 14 | 12.9 | 24.1 | 0.00 | 0.00 | 0.00 | 89 | 1008.6 |
| 20260506112513 | 8 | 20 | 12.9 | 27.4 | 0.00 | 0.00 | 0.00 | 89 | 1008.5 |
| 20260506111012 | 8 | 12 | 9.7 | 20.9 | 0.00 | 0.00 | 0.00 | 93 | 1008.5 |
| 20260506105512 | 7 | 17 | 12.9 | 20.9 | 0.00 | 0.00 | 0.00 | 93 | 1008.5 |
| 20260506104011 | 7 | 21 | 12.9 | 20.9 | 0.00 | 0.00 | 0.00 | 90 | 1008.4 |
| 20260506102511 | 7 | 21 | 12.9 | 24.1 | 0.00 | 0.00 | 0.00 | 92 | 1008.3 |
| 20260506101011 | 7 | 23 | 17.7 | 27.4 | 0.00 | 0.00 | 0.00 | 92 | 1008.3 |
| 20260506095510 | 7 | 23 | 12.9 | 20.9 | 0.03 | 0.00 | 0.00 | 94 | 1008.2 |
| 20260506094010 | 7 | 26 | 12.9 | 17.7 | 0.03 | 0.00 | 0.00 | 90 | 1008.2 |
| 20260506092510 | 7 | 27 | 12.9 | 24.1 | 0.05 | 0.00 | 0.00 | 92 | 1008.1 |
| 20260506091009 | 7 | 25 | 9.7 | 20.9 | 0.08 | 0.00 | 0.00 | 92 | 1008.1 |
| 20260506085509 | 7 | 20 | 9.7 | 20.9 | 0.05 | 0.00 | 0.00 | 92 | 1008.1 |
| 20260506084008 | 6 | 18 | 12.9 | 20.9 | 0.08 | 0.00 | 0.00 | 91 | 1008.0 |
| 20260506082508 | 6 | 16 | 9.7 | 17.7 | 0.03 | 0.00 | 0.00 | 91 | 1007.9 |
| 20260506081007 | 6 | 18 | 9.7 | 17.7 | 0.03 | 0.00 | 0.00 | 91 | 1007.9 |
| 20260506072506 | 6 | 41 | 17.7 | 27.4 | 0.03 | 0.00 | 0.00 | 92 | 1007.6 |
| 20260506071005 | 6 | 32 | 20.9 | 27.4 | 0.05 | 0.00 | 0.00 | 92 | 1007.5 |
| 20260506062503 | 7 | 31 | 20.9 | 35.4 | 0.03 | 0.00 | 0.00 | 91 | 1007.3 |
| 20260506061003 | 7 | 27 | 17.7 | 24.1 | 0.03 | 0.00 | 0.00 | 94 | 1007.2 |
| 20260506051001 | 7 | 15 | 12.9 | 17.7 | 0.00 | 0.00 | 0.00 | 96 | 1007.1 |
| 20260506044000 | 7 | 1 | 9.7 | 17.7 | 0.03 | 0.00 | 0.00 | 97 | 1007.1 |
| 20260506042500 | 7 | 355 | 9.7 | 17.7 | 0.03 | 0.00 | 0.00 | 98 | 1007.1 |
| 20260506040959 | 7 | 356 | 9.7 | 12.9 | 0.13 | 0.00 | 0.00 | 98 | 1007.2 |
| 20260506035459 | 7 | 352 | 6.4 | 9.7 | 0.15 | 0.00 | 0.00 | 98 | 1007.4 |
| 20260506033959 | 7 | 351 | 6.4 | 12.9 | 0.15 | 0.00 | 0.00 | 99 | 1007.4 |
| 20260506032459 | 7 | 354 | 6.4 | 12.9 | 0.18 | 0.00 | 0.00 | 98 | 1007.5 |
| 20260506030959 | 7 | 4 | 9.7 | 17.7 | 0.13 | 0.00 | 0.00 | 98 | 1007.6 |
| 20260506025500 | 7 | 2 | 9.7 | 17.7 | 0.13 | 0.00 | 0.00 | 98 | 1007.6 |
| 20260506023958 | 8 | 7 | 9.7 | 20.9 | 0.08 | 0.00 | 0.00 | 98 | 1007.7 |
| 20260506022458 | 8 | 13 | 9.7 | 20.9 | 0.08 | 0.00 | 0.00 | 98 | 1007.8 |
| 20260506020958 | 8 | 14 | 9.7 | 17.7 | 0.08 | 0.00 | 0.00 | 98 | 1007.9 |
| 20260506015458 | 8 | 11 | 9.7 | 17.7 | 0.08 | 0.00 | 0.00 | 98 | 1008.0 |
| 20260506013957 | 8 | 12 | 9.7 | 20.9 | 0.08 | 0.00 | 0.00 | 98 | 1008.1 |
| 20260506012457 | 8 | 9 | 12.9 | 20.9 | 0.05 | 0.00 | 0.00 | 98 | 1008.1 |
| 20260506010957 | 8 | 7 | 12.9 | 20.9 | 0.03 | 0.00 | 0.00 | 97 | 1008.3 |
| 20260506005457 | 7 | 15 | 9.7 | 17.7 | 0.00 | 0.00 | 0.00 | 97 | 1008.4 |
| 20260506003957 | 8 | 14 | 12.9 | 20.9 | 0.00 | 0.00 | 0.00 | 97 | 1008.5 |
| 20260506002457 | 8 | 15 | 12.9 | 20.9 | 0.00 | 0.00 | 0.00 | 97 | 1008.5 |
| 20260506000956 | 7 | 13 | 9.7 | 20.9 | 0.00 | 0.00 | 0.00 | 97 | 1008.8 |
| 20260505235456 | 7 | 16 | 9.7 | 20.9 | 0.00 | 0.00 | 0.00 | 97 | 1008.8 |
| 20260505233955 | 7 | 13 | 12.9 | 24.1 | 0.00 | 0.00 | 0.00 | 97 | 1008.8 |
| 20260505232456 | 7 | 11 | 17.7 | 24.1 | 0.00 | 0.00 | 0.00 | 96 | 1009.0 |
| 20260505230955 | 8 | 12 | 17.7 | 24.1 | 0.00 | 0.00 | 0.00 | 95 | 1009.1 |
| 20260505225455 | 8 | 13 | 12.9 | 20.9 | 0.00 | 0.00 | 0.00 | 95 | 1009.1 |
| 20260505223955 | 8 | 9 | 12.9 | 20.9 | 0.00 | 0.00 | 0.00 | 95 | 1009.1 |
| 20260505222455 | 8 | 9 | 12.9 | 20.9 | 0.00 | 0.00 | 0.00 | 94 | 1009.2 |
| 20260505220954 | 8 | 9 | 17.7 | 24.1 | 0.00 | 0.00 | 0.00 | 92 | 1009.3 |
| 20260505215453 | 8 | 7 | 12.9 | 24.1 | 0.00 | 0.00 | 0.00 | 91 | 1009.3 |
| 20260505213953 | 10 | 9 | 12.9 | 24.1 | 0.00 | 0.00 | 0.00 | 88 | 1009.5 |
| 20260505212453 | 10 | 18 | 17.7 | 27.4 | 0.00 | 0.00 | 0.00 | 87 | 1009.5 |
| 20260505210953 | 10 | 7 | 17.7 | 32.2 | 0.00 | 0.00 | 0.00 | 85 | 1009.6 |
| 20260505205452 | 10 | 12 | 12.9 | 24.1 | 0.00 | 0.00 | 0.00 | 84 | 1009.5 |
| 20260505203951 | 10 | 19 | 17.7 | 24.1 | 0.00 | 0.00 | 0.00 | 83 | 1009.5 |
| 20260505202451 | 10 | 14 | 12.9 | 24.1 | 0.00 | 0.00 | 0.00 | 82 | 1009.5 |
| 20260505200951 | 10 | 10 | 12.9 | 24.1 | 0.00 | 0.00 | 0.00 | 82 | 1009.4 |
| 20260505195450 | 10 | 11 | 9.7 | 20.9 | 0.00 | 0.00 | 0.00 | 82 | 1009.4 |
| 20260505193949 | 10 | 10 | 9.7 | 17.7 | 0.00 | 0.00 | 0.00 | 83 | 1009.3 |
| 20260505192448 | 10 | 1 | 9.7 | 17.7 | 0.00 | 0.00 | 0.00 | 82 | 1009.2 |
| 20260505190948 | 10 | 5 | 9.7 | 17.7 | 0.00 | 0.00 | 0.00 | 83 | 1009.1 |
| 20260505185447 | 10 | 4 | 9.7 | 17.7 | 0.00 | 0.00 | 0.00 | 83 | 1009.2 |
| 20260505183947 | 10 | 4 | 9.7 | 17.7 | 0.00 | 0.00 | 0.00 | 83 | 1009.2 |
| 20260505182446 | 10 | 5 | 9.7 | 12.9 | 0.00 | 0.00 | 0.00 | 84 | 1009.2 |
| 20260505180945 | 10 | 12 | 6.4 | 12.9 | 0.00 | 0.00 | 0.00 | 85 | 1009.2 |
| 20260505175445 | 10 | 14 | 9.7 | 12.9 | 0.00 | 0.00 | 0.00 | 85 | 1009.2 |
| 20260505173944 | 10 | 13 | 9.7 | 12.9 | 0.00 | 0.00 | 0.00 | 86 | 1009.3 |
| 20260505172444 | 10 | 6 | 9.7 | 12.9 | 0.00 | 0.00 | 0.00 | 86 | 1009.3 |
| 20260505170943 | 10 | 10 | 9.7 | 12.9 | 0.00 | 0.00 | 0.00 | 85 | 1009.5 |
| 20260505165443 | 10 | 8 | 9.7 | 12.9 | 0.00 | 0.00 | 0.00 | 86 | 1009.5 |
| 20260505163942 | 10 | 22 | 6.4 | 17.7 | 0.00 | 0.00 | 0.00 | 86 | 1009.6 |
| 20260505162441 | 10 | 23 | 9.7 | 17.7 | 0.00 | 0.00 | 0.00 | 85 | 1009.6 |
| 20260505160940 | 10 | 36 | 9.7 | 17.7 | 0.00 | 0.00 | 0.00 | 85 | 1009.6 |
| 20260505152439 | 10 | 30 | 12.9 | 20.9 | 0.00 | 0.00 | 0.00 | 86 | 1010.0 |
| 20260505150938 | 10 | 28 | 17.7 | 20.9 | 0.00 | 0.00 | 0.00 | 86 | 1010.0 |
| 20260505123932 | 10 | 19 | 12.9 | 20.9 | 0.00 | 0.00 | 0.00 | 91 | 1011.0 |
| 20260505122432 | 10 | 28 | 9.7 | 20.9 | 0.00 | 0.00 | 0.00 | 93 | 1011.0 |